Overview Statistics Trail Chart Weather Telemetry Raw packets
 

This is the latest recevied weather packets stored in our database for station/object AB1AU. If no packets are shown the sender has not sent any weather packets the latest 10 day(s).

<< 101 102 103 104 105 106 107 >>
Time Temp. Humidity Pressure Rain* Wind** Luminosity Snow
1787858869 27.22° C 52% 1016.7 hPa 0 mm - 79 W/m² -
1787858564 27.22° C 50% 1016.7 hPa 0 mm - 78 W/m² -
1787858264 27.22° C 49% 1016.5 hPa 0 mm - 69 W/m² -
1787857960 27.78° C 47% 1016.5 hPa 0 mm - 62 W/m² -
1787857656 27.78° C 45% 1016.5 hPa 0 mm - 61 W/m² -
1787857351 27.78° C 45% 1016.5 hPa 0 mm - 60 W/m² -
1787857050 28.33° C 44% 1016.6 hPa 0 mm - 58 W/m² -
1787856750 28.33° C 45% 1016.7 hPa 0 mm - 60 W/m² -
1787856444 28.33° C 44% 1016.9 hPa 0 mm - 58 W/m² -
1787856141 28.33° C 45% 1016.8 hPa 0 mm - 55 W/m² -
1787855835 28.33° C 47% 1016.7 hPa 0 mm - 93 W/m² -
1787855530 28.33° C 48% 1016.9 hPa 0 mm - 248 W/m² -
1787855225 27.78° C 50% 1016.8 hPa 0 mm - 163 W/m² -
1787854921 27.22° C 51% 1016.9 hPa 0 mm - 70 W/m² -
1787854621 27.78° C 50% 1017.1 hPa 0 mm - 59 W/m² -
1787854315 27.78° C 50% 1017 hPa 0 mm - 89 W/m² -
1787854010 27.78° C 54% 1017 hPa 0 mm - 69 W/m² -
1787853704 27.22° C 54% 1016.9 hPa 0 mm - 100 W/m² -
1787853103 27.22° C 54% 1017.2 hPa 0 mm - 75 W/m² -
1787852803 27.22° C 53% 1017.1 hPa 0 mm - 51 W/m² -
1787852502 27.22° C 54% 1017.1 hPa 0 mm - 50 W/m² -
1787852197 27.22° C 53% 1017.3 hPa 0 mm - 50 W/m² -
1787851892 27.78° C 51% 1017.3 hPa 0 mm - 30 W/m² -
1787851591 27.78° C 52% 1017.1 hPa 0 mm - 56 W/m² -
1787851286 27.78° C 52% 1017.3 hPa 0 mm - 120 W/m² -

* Rain latest hour (hover to see other rain measurements)
** Current wind speed in m/s (hover to see current wind gust speed)